This is the latest recevied weather packets stored in our database for station/object DK4DAX-2. If no packets are shown the sender has not sent any weather packets the latest 10 day(s).
| Time | Temp. | Humidity | Pressure | Rain* | Wind** | Luminosity | Snow |
|---|---|---|---|---|---|---|---|
| 1777912203 | 16.67° C | 84% | 1005.5 hPa | 0 mm | - | - | - |
| 1777911303 | 16.67° C | 83% | 1005.6 hPa | 0 mm | - | - | - |
| 1777910404 | 16.67° C | 81% | 1005.9 hPa | 0 mm | - | - | - |
| 1777909503 | 16.67° C | 78% | 1005.8 hPa | 0 mm | - | - | - |
| 1777908604 | 16.67° C | 79% | 1006 hPa | 0 mm | - | - | - |
| 1777907703 | 17.22° C | 78% | 1005.9 hPa | 0 mm | - | - | - |
| 1777906803 | 17.22° C | 78% | 1005.5 hPa | 0 mm | - | - | - |
| 1777905903 | 17.78° C | 78% | 1005.9 hPa | 0 mm | - | - | - |
| 1777905003 | 18.89° C | 73% | 1005.9 hPa | 0 mm | - | - | - |
| 1777904103 | 19.44° C | 67% | 1005.7 hPa | 0 mm | - | - | - |
| 1777903204 | 19.44° C | 64% | 1005.5 hPa | 0 mm | - | - | - |
| 1777902303 | 20.56° C | 60% | 1005.1 hPa | 0 mm | - | - | - |
| 1777901403 | 20.56° C | 56% | 1005.1 hPa | 0 mm | - | - | - |
| 1777900503 | 21.67° C | 52% | 1005.1 hPa | 0 mm | - | - | - |
| 1777899603 | 22.22° C | 45% | 1005 hPa | 0 mm | - | - | - |
| 1777898703 | 22.78° C | 41% | 1005.1 hPa | 0 mm | - | - | - |
| 1777897804 | 23.33° C | 42% | 1005.1 hPa | 0 mm | - | - | - |
| 1777896903 | 23.33° C | 41% | 1005.1 hPa | 0 mm | - | - | - |
| 1777896003 | 22.78° C | 42% | 1005 hPa | 0 mm | - | - | - |
| 1777895103 | 22.22° C | 41% | 1005.3 hPa | 0 mm | - | - | - |
| 1777894203 | 22.22° C | 41% | 1005.3 hPa | 0 mm | - | - | - |
| 1777893303 | 22.78° C | 40% | 1005.3 hPa | 0 mm | - | - | - |
| 1777892404 | 23.33° C | 41% | 1005.4 hPa | 0 mm | - | - | - |
| 1777891504 | 23.33° C | 40% | 1005.5 hPa | 0 mm | - | - | - |
| 1777890603 | 24.44° C | 37% | 1005.6 hPa | 0 mm | - | - | - |
* Rain latest hour (hover to see other rain measurements)
** Current wind speed in m/s (hover to see current wind gust speed)